Time,TemperatureF,DewpointF,PressureIn,WindDirection,WindDirectionDegrees,WindSpeedMPH,WindSpeedGustMPH,Humidity,HourlyPrecipIn,Conditions,Clouds,dailyrainin,SoftwareType,DateUTC
2013-04-18 00:03:00,64.0,63.0,30.10,SSE,159,0.0,-999.0,95,-99.99,,,-99.99,,2013-04-18 04:03:00,
2013-04-18 00:13:00,64.0,63.0,30.10,SSE,159,0.0,-999.0,95,-99.99,,,-99.99,,2013-04-18 04:13:00,
2013-04-18 00:23:00,63.0,62.0,30.10,SSE,159,0.0,-999.0,95,-99.99,,,-99.99,,2013-04-18 04:23:00,
2013-04-18 00:33:00,63.0,62.0,30.10,SSE,159,0.0,-999.0,95,-99.99,,,-99.99,,2013-04-18 04:33:00,
2013-04-18 00:43:00,63.0,62.0,30.10,SSE,159,0.0,-999.0,95,-99.99,,,-99.99,,2013-04-18 04:43:00,
2013-04-18 00:53:00,63.0,62.0,30.10,SSE,159,0.0,-999.0,95,-99.99,,,-99.99,,2013-04-18 04:53:00,
2013-04-18 01:02:00,63.0,62.0,30.10,SSE,159,0.0,-999.0,96,-99.99,,,-99.99,,2013-04-18 05:02:00,
2013-04-18 01:12:00,63.0,62.0,30.09,SSE,159,0.0,-999.0,96,-99.99,,,-99.99,,2013-04-18 05:12:00,
2013-04-18 01:22:00,63.0,62.0,30.09,SSE,159,0.0,-999.0,96,-99.99,,,-99.99,,2013-04-18 05:22:00,
2013-04-18 01:33:00,62.0,61.0,30.09,SSE,159,0.0,-999.0,96,-99.99,,,-99.99,,2013-04-18 05:33:00,
2013-04-18 01:42:00,62.0,61.0,30.08,SSE,159,0.0,-999.0,96,-99.99,,,-99.99,,2013-04-18 05:42:00,
2013-04-18 01:52:00,62.0,61.0,30.08,SSE,159,0.0,-999.0,96,-99.99,,,-99.99,,2013-04-18 05:52:00,
2013-04-18 02:02:00,62.0,61.0,30.07,SSE,159,0.0,-999.0,96,-99.99,,,-99.99,,2013-04-18 06:02:00,
2013-04-18 02:12:00,62.0,61.0,30.07,SSE,159,0.0,-999.0,96,-99.99,,,-99.99,,2013-04-18 06:12:00,
2013-04-18 02:22:00,62.0,61.0,30.07,SSE,159,0.0,-999.0,96,-99.99,,,-99.99,,2013-04-18 06:22:00,
2013-04-18 02:32:00,62.0,61.0,30.07,SSE,159,0.0,-999.0,96,-99.99,,,-99.99,,2013-04-18 06:32:00,
2013-04-18 02:42:00,62.0,61.0,30.06,SSE,159,0.0,-999.0,96,-99.99,,,-99.99,,2013-04-18 06:42:00,
2013-04-18 02:52:00,62.0,61.0,30.06,SSE,159,0.0,-999.0,96,-99.99,,,-99.99,,2013-04-18 06:52:00,
2013-04-18 03:02:00,62.0,61.0,30.06,SSE,159,0.0,-999.0,97,-99.99,,,-99.99,,2013-04-18 07:02:00,
2013-04-18 03:12:00,61.0,60.0,30.06,SSE,159,0.0,-999.0,97,-99.99,,,-99.99,,2013-04-18 07:12:00,
2013-04-18 03:22:00,61.0,60.0,30.06,SSE,159,0.0,-999.0,97,-99.99,,,-99.99,,2013-04-18 07:22:00,
2013-04-18 03:32:00,61.0,60.0,30.05,SSE,159,0.0,-999.0,97,-99.99,,,-99.99,,2013-04-18 07:32:00,
2013-04-18 03:42:00,61.0,60.0,30.05,SSE,159,0.0,-999.0,97,-99.99,,,-99.99,,2013-04-18 07:42:00,
2013-04-18 03:52:00,61.0,60.0,30.05,SSE,159,0.0,-999.0,97,-99.99,,,-99.99,,2013-04-18 07:52:00,
2013-04-18 04:02:00,62.0,61.0,30.04,SSE,159,0.0,-999.0,97,-99.99,,,-99.99,,2013-04-18 08:02:00,
2013-04-18 04:12:00,62.0,61.0,30.04,SSE,159,0.0,-999.0,97,-99.99,,,-99.99,,2013-04-18 08:12:00,
2013-04-18 04:22:00,62.0,61.0,30.04,SSE,159,0.0,-999.0,97,-99.99,,,-99.99,,2013-04-18 08:22:00,
2013-04-18 04:32:00,61.0,60.0,30.04,SSE,159,0.0,-999.0,97,-99.99,,,-99.99,,2013-04-18 08:32:00,
2013-04-18 04:42:00,61.0,60.0,30.04,SSE,159,0.0,-999.0,97,-99.99,,,-99.99,,2013-04-18 08:42:00,
2013-04-18 04:52:00,61.0,60.0,30.04,SSE,159,0.0,-999.0,97,-99.99,,,-99.99,,2013-04-18 08:52:00,
2013-04-18 05:02:00,61.0,60.0,30.04,SSE,159,0.0,-999.0,97,-99.99,,,-99.99,,2013-04-18 09:02:00,
2013-04-18 05:12:00,61.0,60.0,30.04,SSE,159,0.0,-999.0,97,-99.99,,,-99.99,,2013-04-18 09:12:00,
2013-04-18 05:22:00,61.0,60.0,30.04,SSE,159,0.0,-999.0,97,-99.99,,,-99.99,,2013-04-18 09:22:00,
2013-04-18 05:33:00,61.0,60.0,30.04,SSE,159,0.0,-999.0,97,-99.99,,,-99.99,,2013-04-18 09:33:00,
2013-04-18 05:43:00,61.0,60.0,30.04,SSE,159,0.0,-999.0,97,-99.99,,,-99.99,,2013-04-18 09:43:00,
2013-04-18 05:53:00,61.0,60.0,30.04,SSE,159,0.0,-999.0,97,-99.99,,,-99.99,,2013-04-18 09:53:00,
2013-04-18 06:03:00,61.0,60.0,30.04,SSE,159,0.0,-999.0,97,-99.99,,,-99.99,,2013-04-18 10:03:00,
2013-04-18 06:12:00,61.0,60.0,30.04,SSE,159,0.0,-999.0,97,-99.99,,,-99.99,,2013-04-18 10:12:00,
2013-04-18 06:23:00,61.0,60.0,30.05,SSE,159,0.0,-999.0,97,-99.99,,,-99.99,,2013-04-18 10:23:00,
2013-04-18 06:33:00,62.0,61.0,30.06,SSE,159,0.0,-999.0,97,-99.99,,,-99.99,,2013-04-18 10:33:00,
2013-04-18 06:42:00,62.0,61.0,30.06,SSE,159,0.0,-999.0,97,-99.99,,,-99.99,,2013-04-18 10:42:00,
2013-04-18 06:52:00,62.0,61.0,30.06,SSE,159,0.0,-999.0,97,-99.99,,,-99.99,,2013-04-18 10:52:00,
2013-04-18 07:02:00,62.0,61.0,30.07,ESE,117,0.0,-999.0,97,-99.99,,,-99.99,,2013-04-18 11:02:00,
2013-04-18 07:12:00,62.0,61.0,30.07,ESE,115,0.0,-999.0,97,-99.99,,,-99.99,,2013-04-18 11:12:00,
2013-04-18 07:22:00,62.0,61.0,30.07,ESE,115,0.0,-999.0,97,-99.99,,,-99.99,,2013-04-18 11:22:00,
2013-04-18 07:32:00,62.0,61.0,30.08,ESE,115,0.0,-999.0,97,-99.99,,,-99.99,,2013-04-18 11:32:00,
2013-04-18 07:42:00,62.0,61.0,30.09,ESE,115,0.0,-999.0,98,-99.99,,,-99.99,,2013-04-18 11:42:00,
2013-04-18 07:52:00,62.0,61.0,30.09,ESE,115,0.0,-999.0,98,-99.99,,,-99.99,,2013-04-18 11:52:00,
2013-04-18 08:02:00,63.0,62.0,30.09,NW,317,0.0,-999.0,97,-99.99,,,-99.99,,2013-04-18 12:02:00,
2013-04-18 08:12:00,63.0,62.0,30.09,NW,317,0.0,-999.0,98,-99.99,,,-99.99,,2013-04-18 12:12:00,
2013-04-18 08:22:00,63.0,62.0,30.09,NW,317,0.0,-999.0,98,-99.99,,,-99.99,,2013-04-18 12:22:00,
2013-04-18 08:32:00,63.0,62.0,30.09,NW,320,0.0,-999.0,97,-99.99,,,-99.99,,2013-04-18 12:32:00,
2013-04-18 08:42:00,63.0,62.0,30.09,NW,320,0.0,-999.0,97,-99.99,,,-99.99,,2013-04-18 12:42:00,
2013-04-18 08:52:00,64.0,63.0,30.09,NW,319,0.0,-999.0,98,-99.99,,,-99.99,,2013-04-18 12:52:00,
2013-04-18 09:03:00,64.0,63.0,30.09,NNW,327,0.0,-999.0,98,-99.99,,,-99.99,,2013-04-18 13:03:00,
2013-04-18 09:12:00,66.0,65.0,30.09,NNW,327,0.0,-999.0,98,-99.99,,,-99.99,,2013-04-18 13:12:00,
2013-04-18 09:22:00,66.0,65.0,30.09,NNW,327,0.0,-999.0,98,-99.99,,,-99.99,,2013-04-18 13:22:00,
2013-04-18 09:32:00,67.0,66.0,30.09,North,355,0.0,-999.0,98,-99.99,,,-99.99,,2013-04-18 13:32:00,
2013-04-18 09:42:00,69.0,68.0,30.09,South,181,0.0,-999.0,98,-99.99,,,-99.99,,2013-04-18 13:42:00,
2013-04-18 09:52:00,69.0,68.0,30.09,South,181,0.0,-999.0,98,-99.99,,,-99.99,,2013-04-18 13:52:00,
2013-04-18 10:03:00,70.0,69.0,30.09,South,191,0.0,-999.0,97,-99.99,,,-99.99,,2013-04-18 14:03:00,
2013-04-18 10:12:00,72.0,71.0,30.08,SW,221,0.0,-999.0,96,-99.99,,,-99.99,,2013-04-18 14:12:00,
2013-04-18 10:22:00,72.0,71.0,30.08,SW,221,0.0,-999.0,96,-99.99,,,-99.99,,2013-04-18 14:22:00,
2013-04-18 10:32:00,73.0,70.0,30.09,SSE,163,0.0,-999.0,91,-99.99,,,-99.99,,2013-04-18 14:32:00,
2013-04-18 10:43:00,73.0,69.0,30.08,SSE,160,0.0,-999.0,88,-99.99,,,-99.99,,2013-04-18 14:43:00,
2013-04-18 10:52:00,73.0,69.0,30.08,SSE,160,0.0,-999.0,88,-99.99,,,-99.99,,2013-04-18 14:52:00,
2013-04-18 11:03:00,73.0,70.0,30.09,SSE,157,0.0,-999.0,91,-99.99,,,-99.99,,2013-04-18 15:03:00,
2013-04-18 11:12:00,73.0,70.0,30.09,SSE,157,0.0,-999.0,91,-99.99,,,-99.99,,2013-04-18 15:12:00,
2013-04-18 11:22:00,73.0,70.0,30.09,SSE,157,0.0,-999.0,91,-99.99,,,-99.99,,2013-04-18 15:22:00,
2013-04-18 11:33:00,74.0,71.0,30.09,SSE,159,0.0,-999.0,91,-99.99,,,-99.99,,2013-04-18 15:33:00,
2013-04-18 11:43:00,74.0,71.0,30.09,SE,136,0.0,-999.0,89,-99.99,,,-99.99,,2013-04-18 15:43:00,
2013-04-18 11:52:00,74.0,71.0,30.09,SE,136,0.0,-999.0,89,-99.99,,,-99.99,,2013-04-18 15:52:00,
2013-04-18 12:03:00,76.0,69.0,30.08,SE,124,2.0,-999.0,79,-99.99,,,-99.99,,2013-04-18 16:03:00,
2013-04-18 12:13:00,77.0,69.0,30.08,SW,231,1.0,-999.0,76,-99.99,,,-99.99,,2013-04-18 16:13:00,
2013-04-18 12:23:00,77.0,69.0,30.08,SW,231,1.0,-999.0,76,-99.99,,,-99.99,,2013-04-18 16:23:00,
2013-04-18 12:33:00,77.0,69.0,30.07,SE,126,1.0,-999.0,76,-99.99,,,-99.99,,2013-04-18 16:33:00,
2013-04-18 12:43:00,76.0,68.0,30.08,East,101,1.0,-999.0,76,-99.99,,,-99.99,,2013-04-18 16:43:00,
2013-04-18 12:52:00,76.0,68.0,30.08,East,101,1.0,-999.0,76,-99.99,,,-99.99,,2013-04-18 16:52:00,
2013-04-18 13:03:00,79.0,70.0,30.07,ESE,123,1.0,-999.0,73,-99.99,,,-99.99,,2013-04-18 17:03:00,
2013-04-18 13:12:00,79.0,69.0,30.07,East,79,0.0,-999.0,72,-99.99,,,-99.99,,2013-04-18 17:12:00,
2013-04-18 13:22:00,79.0,69.0,30.07,East,79,0.0,-999.0,72,-99.99,,,-99.99,,2013-04-18 17:22:00,
2013-04-18 13:33:00,80.0,69.0,30.06,ESE,106,1.0,-999.0,69,-99.99,,,-99.99,,2013-04-18 17:33:00,
2013-04-18 13:42:00,79.0,68.0,30.06,SE,136,0.0,-999.0,70,-99.99,,,-99.99,,2013-04-18 17:42:00,
2013-04-18 13:52:00,79.0,68.0,30.06,SE,136,0.0,-999.0,70,-99.99,,,-99.99,,2013-04-18 17:52:00,
2013-04-18 14:03:00,79.0,68.0,30.06,SSE,164,1.0,-999.0,69,-99.99,,,-99.99,,2013-04-18 18:03:00,
2013-04-18 14:12:00,78.0,67.0,30.06,South,178,1.0,-999.0,69,-99.99,,,-99.99,,2013-04-18 18:12:00,
2013-04-18 14:23:00,78.0,67.0,30.06,South,178,1.0,-999.0,69,-99.99,,,-99.99,,2013-04-18 18:23:00,
2013-04-18 14:32:00,79.0,68.0,30.06,South,178,1.0,-999.0,69,-99.99,,,-99.99,,2013-04-18 18:32:00,
2013-04-18 14:42:00,81.0,70.0,30.05,SE,136,0.0,-999.0,69,-99.99,,,-99.99,,2013-04-18 18:42:00,
2013-04-18 14:52:00,81.0,70.0,30.05,SE,136,0.0,-999.0,69,-99.99,,,-99.99,,2013-04-18 18:52:00,
2013-04-18 15:03:00,81.0,68.0,30.05,SSE,168,2.0,-999.0,65,-99.99,,,-99.99,,2013-04-18 19:03:00,
2013-04-18 15:12:00,81.0,68.0,30.05,SSE,168,2.0,-999.0,65,-99.99,,,-99.99,,2013-04-18 19:12:00,
2013-04-18 15:22:00,79.0,69.0,30.04,SE,138,1.0,-999.0,71,-99.99,,,-99.99,,2013-04-18 19:22:00,
2013-04-18 15:32:00,80.0,69.0,30.04,ESE,102,1.0,-999.0,69,-99.99,,,-99.99,,2013-04-18 19:32:00,
2013-04-18 15:42:00,80.0,69.0,30.04,ESE,102,1.0,-999.0,69,-99.99,,,-99.99,,2013-04-18 19:42:00,
2013-04-18 15:52:00,80.0,68.0,30.03,ESE,122,2.0,-999.0,68,-99.99,,,-99.99,,2013-04-18 19:52:00,
2013-04-18 16:02:00,80.0,68.0,30.03,NE,38,1.0,-999.0,67,-99.99,,,-99.99,,2013-04-18 20:02:00,
2013-04-18 16:12:00,79.0,67.0,30.02,SSE,167,2.0,-999.0,66,-99.99,,,-99.99,,2013-04-18 20:12:00,
2013-04-18 16:22:00,79.0,67.0,30.02,SSE,167,2.0,-999.0,66,-99.99,,,-99.99,,2013-04-18 20:22:00,
2013-04-18 16:32:00,79.0,67.0,30.02,East,101,3.0,-999.0,66,-99.99,,,-99.99,,2013-04-18 20:32:00,
2013-04-18 16:42:00,79.0,67.0,30.01,East,99,1.0,-999.0,66,-99.99,,,-99.99,,2013-04-18 20:42:00,
2013-04-18 16:52:00,79.0,67.0,30.01,East,99,1.0,-999.0,66,-99.99,,,-99.99,,2013-04-18 20:52:00,
2013-04-18 17:02:00,79.0,67.0,30.01,South,186,1.0,-999.0,66,-99.99,,,-99.99,,2013-04-18 21:02:00,
2013-04-18 17:12:00,79.0,68.0,30.01,SSE,159,2.0,-999.0,68,-99.99,,,-99.99,,2013-04-18 21:12:00,
2013-04-18 17:22:00,79.0,68.0,30.01,SSE,159,2.0,-999.0,68,-99.99,,,-99.99,,2013-04-18 21:22:00,
2013-04-18 17:33:00,78.0,68.0,30.01,ESE,115,1.0,-999.0,71,-99.99,,,-99.99,,2013-04-18 21:33:00,
2013-04-18 17:43:00,77.0,67.0,30.01,East,101,1.0,-999.0,72,-99.99,,,-99.99,,2013-04-18 21:43:00,
2013-04-18 17:52:00,77.0,67.0,30.01,East,101,1.0,-999.0,72,-99.99,,,-99.99,,2013-04-18 21:52:00,
2013-04-18 18:03:00,77.0,67.0,30.01,SE,126,1.0,-999.0,72,-99.99,,,-99.99,,2013-04-18 22:03:00,
2013-04-18 18:13:00,77.0,68.0,30.01,SSE,154,1.0,-999.0,73,-99.99,,,-99.99,,2013-04-18 22:13:00,
2013-04-18 18:23:00,77.0,68.0,30.01,SSE,154,1.0,-999.0,73,-99.99,,,-99.99,,2013-04-18 22:23:00,
2013-04-18 18:33:00,77.0,68.0,30.01,SSE,160,0.0,-999.0,74,-99.99,,,-99.99,,2013-04-18 22:33:00,
2013-04-18 18:42:00,77.0,68.0,30.00,SE,144,1.0,-999.0,74,-99.99,,,-99.99,,2013-04-18 22:42:00,
2013-04-18 18:52:00,77.0,68.0,30.00,SE,144,1.0,-999.0,74,-99.99,,,-99.99,,2013-04-18 22:52:00,
2013-04-18 19:04:00,76.0,67.0,29.99,ESE,106,0.0,-999.0,75,-99.99,,,-99.99,,2013-04-18 23:04:00,
2013-04-18 19:12:00,76.0,68.0,29.98,SE,129,0.0,-999.0,76,-99.99,,,-99.99,,2013-04-18 23:12:00,
2013-04-18 19:21:00,76.0,68.0,29.98,SE,129,0.0,-999.0,76,-99.99,,,-99.99,,2013-04-18 23:21:00,
2013-04-18 19:32:00,75.0,68.0,29.98,South,169,1.0,-999.0,78,-99.99,,,-99.99,,2013-04-18 23:32:00,
2013-04-18 19:42:00,74.0,67.0,29.98,ESE,117,0.0,-999.0,80,-99.99,,,-99.99,,2013-04-18 23:42:00,
2013-04-18 19:52:00,74.0,67.0,29.98,ESE,117,0.0,-999.0,80,-99.99,,,-99.99,,2013-04-18 23:52:00,
2013-04-18 20:01:00,73.0,67.0,29.98,ESE,123,0.0,-999.0,81,-99.99,,,-99.99,,2013-04-19 00:01:00,
2013-04-18 20:12:00,73.0,68.0,29.98,South,175,0.0,-999.0,83,-99.99,,,-99.99,,2013-04-19 00:12:00,
2013-04-18 20:22:00,73.0,68.0,29.98,South,175,0.0,-999.0,83,-99.99,,,-99.99,,2013-04-19 00:22:00,
2013-04-18 20:32:00,72.0,67.0,29.98,SE,146,0.0,-999.0,84,-99.99,,,-99.99,,2013-04-19 00:32:00,
2013-04-18 20:42:00,72.0,67.0,29.99,SE,146,0.0,-999.0,85,-99.99,,,-99.99,,2013-04-19 00:42:00,
2013-04-18 20:51:00,72.0,67.0,29.99,SE,146,0.0,-999.0,85,-99.99,,,-99.99,,2013-04-19 00:51:00,
2013-04-18 21:01:00,71.0,67.0,29.99,SE,146,0.0,-999.0,87,-99.99,,,-99.99,,2013-04-19 01:01:00,
2013-04-18 21:11:00,71.0,67.0,29.99,SE,146,0.0,-999.0,88,-99.99,,,-99.99,,2013-04-19 01:11:00,
2013-04-18 21:21:00,71.0,67.0,29.99,SE,146,0.0,-999.0,88,-99.99,,,-99.99,,2013-04-19 01:21:00,
2013-04-18 21:32:00,70.0,67.0,30.00,SE,146,0.0,-999.0,89,-99.99,,,-99.99,,2013-04-19 01:32:00,
2013-04-18 21:42:00,70.0,67.0,30.00,SE,146,0.0,-999.0,90,-99.99,,,-99.99,,2013-04-19 01:42:00,
2013-04-18 21:52:00,70.0,67.0,30.00,SE,146,0.0,-999.0,90,-99.99,,,-99.99,,2013-04-19 01:52:00,
2013-04-18 22:02:00,70.0,67.0,30.01,SE,146,0.0,-999.0,91,-99.99,,,-99.99,,2013-04-19 02:02:00,
2013-04-18 22:11:00,70.0,67.0,30.01,SE,146,0.0,-999.0,91,-99.99,,,-99.99,,2013-04-19 02:11:00,
2013-04-18 22:21:00,70.0,68.0,30.00,SE,146,0.0,-999.0,92,-99.99,,,-99.99,,2013-04-19 02:21:00,
2013-04-18 22:32:00,69.0,67.0,30.00,SE,146,0.0,-999.0,92,-99.99,,,-99.99,,2013-04-19 02:32:00,
2013-04-18 22:42:00,69.0,67.0,30.00,SE,146,0.0,-999.0,93,-99.99,,,-99.99,,2013-04-19 02:42:00,
2013-04-18 22:51:00,69.0,67.0,30.00,SE,146,0.0,-999.0,93,-99.99,,,-99.99,,2013-04-19 02:51:00,
2013-04-18 23:01:00,69.0,67.0,30.00,SE,146,0.0,-999.0,93,-99.99,,,-99.99,,2013-04-19 03:01:00,
2013-04-18 23:12:00,69.0,67.0,30.00,SE,146,0.0,-999.0,94,-99.99,,,-99.99,,2013-04-19 03:12:00,
2013-04-18 23:21:00,69.0,67.0,30.00,SE,146,0.0,-999.0,94,-99.99,,,-99.99,,2013-04-19 03:21:00,
2013-04-18 23:33:00,69.0,67.0,29.99,SE,146,0.0,-999.0,94,-99.99,,,-99.99,,2013-04-19 03:33:00,
2013-04-18 23:43:00,68.0,67.0,29.98,SE,146,0.0,-999.0,95,-99.99,,,-99.99,,2013-04-19 03:43:00,
2013-04-18 23:53:00,68.0,67.0,29.98,SE,146,0.0,-999.0,95,-99.99,,,-99.99,,2013-04-19 03:53:00,